215P/NEAT (2019)

Japanese version
Home page
Updated on January 20, 2022

---------------------------------------------------------------------

* Profile

* Pictures

* Orbital Elements

Epoch 2021 July 5.0 TT = JDT 2459400.5
T 2019 Nov. 18.77758 TT                                 Rudenko
q   3.6060545            (2000.0)            P               Q
n   0.10946829     Peri.  262.17170     +0.73898892     +0.65601021
a   4.3278994      Node    56.68493     -0.52280444     +0.70203969
e   0.1667888      Incl.   10.58086     -0.42493633     +0.27711167
P   9.00
From 767 observations 2009 Jan. 22-2021 Oct. 16, mean residual 0".6.
     Nongravitational parameters A1 = +0.12, A2 = -0.0256.

* Magnitudes Graph

        m1 = 1.0 + 5 log d + 25.0 log r(t - 150)

---------------------------------------------------------------------

The orbital elements are published on M.P.E.C. 2021-U109.
The magnitudes graphs are made with Comet for Windows.

---------------------------------------------------------------------

Copyright(C) Seiichi Yoshida (comet@aerith.net). All rights reserved.